�������l�o���
Date,Time,MP-1(��Sv/h),MP-2(��Sv/h),MP-3(��Sv/h),MP-4(��Sv/h),MP-5(��Sv/h),MP-6(��Sv/h),MP-7(��Sv/h),MP-8(��Sv/h),����,����(m/s),���J
2016/11/05,00:00,1.118,1.926,1.303,2.161,1.507,0.585,1.069,0.985,��,3.9,��
2016/11/05,00:10,1.117,1.926,1.301,2.164,1.506,0.583,1.069,0.985,��쐼,3.9,��
2016/11/05,00:20,1.118,1.927,1.304,2.163,1.504,0.585,1.069,0.986,��,4.1,��
2016/11/05,00:30,1.123,1.927,1.302,2.162,1.506,0.584,1.070,0.986,��쓌,4.9,��
2016/11/05,00:40,1.117,1.925,1.302,2.164,1.503,0.583,1.070,0.984,��쓌,6.7,��
2016/11/05,00:50,1.119,1.928,1.299,2.165,1.505,0.583,1.071,0.986,��쓌,7.2,��
2016/11/05,01:00,1.119,1.925,1.302,2.162,1.504,0.584,1.071,0.985,��,7.4,��
2016/11/05,01:10,1.119,1.926,1.301,2.163,1.503,0.583,1.070,0.985,��,8.0,��
2016/11/05,01:20,1.121,1.929,1.304,2.162,1.508,0.585,1.072,0.985,��쓌,8.3,��
2016/11/05,01:30,1.119,1.927,1.302,2.166,1.507,0.585,1.070,0.985,��,8.8,��
2016/11/05,01:40,1.119,1.928,1.302,2.164,1.506,0.586,1.068,0.987,��,9.1,��
2016/11/05,01:50,1.118,1.927,1.303,2.164,1.505,0.584,1.068,0.986,��,8.8,��
2016/11/05,02:00,1.117,1.925,1.303,2.166,1.505,0.585,1.068,0.985,��,8.8,��
2016/11/05,02:10,1.117,1.925,1.301,2.162,1.506,0.585,1.072,0.984,��쐼,9.1,��
2016/11/05,02:20,1.118,1.926,1.302,2.165,1.505,0.584,1.069,0.984,��쐼,7.1,��
2016/11/05,02:30,1.119,1.925,1.300,2.162,1.506,0.585,1.072,0.984,��쐼,5.5,��
2016/11/05,02:40,1.118,1.928,1.299,2.163,1.503,0.586,1.072,0.986,��쐼,4.7,��
2016/11/05,02:50,1.120,1.929,1.302,2.165,1.502,0.585,1.071,0.983,��쐼,3.4,��
2016/11/05,03:00,1.118,1.930,1.299,2.164,1.503,0.585,1.070,0.985,��쐼,3.8,��
2016/11/05,03:10,1.118,1.927,1.300,2.163,1.503,0.583,1.069,0.984,��쐼,4.9,��
2016/11/05,03:20,1.120,1.924,1.301,2.162,1.501,0.586,1.070,0.985,��쐼,5.3,��
2016/11/05,03:30,1.120,1.921,1.301,2.162,1.505,0.584,1.070,0.986,��쐼,5.2,��
2016/11/05,03:40,1.118,1.924,1.300,2.163,1.507,0.586,1.072,0.985,��쐼,6.1,��
2016/11/05,03:50,1.118,1.926,1.300,2.160,1.507,0.585,1.072,0.983,��쐼,6.0,��
2016/11/05,04:00,1.119,1.925,1.302,2.163,1.507,0.586,1.070,0.987,��쐼,6.3,��
2016/11/05,04:10,1.119,1.924,1.303,2.159,1.505,0.584,1.071,0.985,�쐼,6.6,��
2016/11/05,04:20,1.118,1.925,1.302,2.162,1.504,0.584,1.072,0.984,�쐼,7.4,��
2016/11/05,04:30,1.116,1.927,1.304,2.163,1.505,0.585,1.070,0.986,�쐼,8.3,��
2016/11/05,04:40,1.119,1.931,1.303,2.166,1.503,0.584,1.072,0.986,��쐼,8.6,��
2016/11/05,04:50,1.121,1.929,1.306,2.167,1.509,0.586,1.071,0.986,�쐼,8.8,��
2016/11/05,05:00,1.119,1.928,1.304,2.162,1.504,0.586,1.071,0.986,��쐼,9.6,��
2016/11/05,05:10,1.120,1.929,1.305,2.166,1.504,0.585,1.072,0.986,��쐼,8.9,��
2016/11/05,05:20,1.120,1.927,1.304,2.164,1.506,0.584,1.071,0.986,�쐼,9.7,��
2016/11/05,05:30,1.120,1.930,1.302,2.162,1.503,0.584,1.072,0.985,��쐼,9.4,��
2016/11/05,05:40,1.118,1.927,1.303,2.164,1.505,0.584,1.073,0.986,��쐼,11.3,��
2016/11/05,05:50,1.121,1.928,1.304,2.165,1.505,0.584,1.073,0.986,��쐼,11.0,��
2016/11/05,06:00,1.120,1.931,1.305,2.167,1.506,0.585,1.074,0.986,��쐼,10.5,��
2016/11/05,06:10,1.120,1.930,1.305,2.166,1.507,0.586,1.074,0.987,�쐼,10.5,��
2016/11/05,06:20,1.120,1.928,1.304,2.168,1.506,0.586,1.072,0.985,�쐼,9.6,��
2016/11/05,06:30,1.121,1.927,1.303,2.168,1.504,0.586,1.073,0.987,�쐼,8.3,��
2016/11/05,06:40,1.120,1.927,1.307,2.168,1.506,0.585,1.073,0.987,�쐼,8.6,��
2016/11/05,06:50,1.121,1.931,1.305,2.168,1.504,0.585,1.073,0.986,�쐼,8.5,��
2016/11/05,07:00,1.120,1.934,1.303,2.167,1.505,0.586,1.072,0.985,�쐼,8.6,��
2016/11/05,07:10,1.122,1.929,1.304,2.168,1.507,0.587,1.071,0.985,�쐼,8.3,��
2016/11/05,07:20,1.122,1.928,1.304,2.168,1.504,0.587,1.073,0.989,�쐼,7.4,��
2016/11/05,07:30,1.120,1.927,1.304,2.166,1.507,0.588,1.074,0.988,�쐼,7.4,��
2016/11/05,07:40,1.122,1.933,1.304,2.169,1.505,0.588,1.072,0.987,�쐼,6.9,��
2016/11/05,07:50,1.123,1.931,1.301,2.169,1.508,0.588,1.074,0.989,�쐼,7.4,��
2016/11/05,08:00,1.125,1.931,1.303,2.168,1.508,0.590,1.074,0.987,�쐼,7.4,��
2016/11/05,08:10,1.124,1.929,1.304,2.167,1.509,0.588,1.073,0.988,�쐼,5.8,��
2016/11/05,08:20,1.123,1.927,1.306,2.169,1.508,0.588,1.073,0.989,�쐼,5.5,��
2016/11/05,08:30,1.127,1.931,1.304,2.169,1.508,0.590,1.075,0.987,��쐼,5.2,��
2016/11/05,08:40,1.125,1.931,1.305,2.173,1.509,0.588,1.073,0.988,�쐼,6.0,��
2016/11/05,08:50,1.125,1.930,1.307,2.172,1.511,0.588,1.072,0.987,�쐼,4.5,��
2016/11/05,09:00,1.125,1.927,1.306,2.173,1.512,0.589,1.074,0.989,�쐼,4.9,��
2016/11/05,09:10,1.127,1.929,1.306,2.170,1.511,0.591,1.076,0.988,�쐼,5.6,��
2016/11/05,09:20,1.125,1.932,1.308,2.173,1.509,0.590,1.075,0.989,��쐼,5.3,��
2016/11/05,09:30,1.127,1.933,1.306,2.172,1.513,0.592,1.075,0.989,��쐼,5.8,��
2016/11/05,09:40,1.127,1.930,1.307,2.172,1.509,0.590,1.074,0.989,��쐼,6.0,��
2016/11/05,09:50,1.126,1.930,1.308,2.175,1.511,0.590,1.074,0.987,��쐼,7.4,��
2016/11/05,10:00,1.129,1.927,1.307,2.173,1.510,0.588,1.074,0.990,��쐼,6.3,��
2016/11/05,10:10,1.128,1.929,1.306,2.173,1.512,0.589,1.074,0.989,��쐼,4.4,��
2016/11/05,10:20,1.128,1.929,1.308,2.171,1.510,0.589,1.073,0.990,��쐼,4.2,��
2016/11/05,10:30,1.127,1.928,1.309,2.175,1.512,0.589,1.074,0.991,��쐼,4.9,��
2016/11/05,10:40,1.126,1.927,1.311,2.176,1.510,0.591,1.075,0.989,��쐼,5.3,��
2016/11/05,10:50,1.129,1.923,1.308,2.177,1.511,0.588,1.074,0.988,��쐼,6.6,��
2016/11/05,11:00,1.130,1.932,1.311,2.179,1.513,0.592,1.078,0.990,��쐼,6.0,��
2016/11/05,11:10,1.130,1.934,1.307,2.178,1.516,0.590,1.074,0.989,��쐼,5.2,��
2016/11/05,11:20,1.128,1.931,1.311,2.179,1.517,0.589,1.076,0.986,��쐼,6.0,��
2016/11/05,11:30,1.131,1.934,1.309,2.180,1.515,0.590,1.076,0.987,��쐼,6.0,��
2016/11/05,11:40,1.131,1.933,1.308,2.177,1.514,0.591,1.075,0.986,��쐼,4.1,��
2016/11/05,11:50,1.132,1.933,1.309,2.174,1.518,0.590,1.073,0.989,��쐼,5.8,��
2016/11/05,12:00,1.130,1.934,1.309,2.180,1.515,0.589,1.076,0.988,��쐼,4.7,��
2016/11/05,12:10,1.130,1.928,1.311,2.178,1.513,0.590,1.075,0.988,��,4.5,��
2016/11/05,12:20,1.130,1.931,1.311,2.181,1.517,0.590,1.077,0.987,��,4.4,��
2016/11/05,12:30,1.128,1.935,1.313,2.179,1.518,0.590,1.076,0.985,��,4.9,��
2016/11/05,12:40,1.132,1.934,1.311,2.178,1.515,0.588,1.075,0.988,��쓌,6.3,��
2016/11/05,12:50,1.128,1.928,1.308,2.175,1.517,0.588,1.077,0.988,��쓌,6.0,��
2016/11/05,13:00,1.128,1.931,1.309,2.175,1.517,0.592,1.077,0.986,��쓌,6.4,��
2016/11/05,13:10,1.126,1.927,1.309,2.178,1.515,0.589,1.074,0.987,��쓌,7.5,��
2016/11/05,13:20,1.127,1.928,1.308,2.179,1.513,0.589,1.075,0.986,��쓌,6.7,��
2016/11/05,13:30,1.129,1.928,1.309,2.178,1.513,0.588,1.076,0.987,��쓌,6.6,��
2016/11/05,13:40,1.127,1.929,1.309,2.178,1.515,0.588,1.075,0.987,��쓌,6.4,��
2016/11/05,13:50,1.128,1.929,1.312,2.180,1.516,0.590,1.073,0.987,��쓌,5.5,��
2016/11/05,14:00,1.130,1.934,1.314,2.178,1.513,0.590,1.076,0.988,��,4.5,��
2016/11/05,14:10,1.128,1.936,1.312,2.175,1.516,0.590,1.076,0.986,��,3.9,��
2016/11/05,14:20,1.131,1.937,1.317,2.176,1.515,0.589,1.074,0.987,��쓌,3.5,��
2016/11/05,14:30,1.131,1.934,1.315,2.177,1.515,0.592,1.075,0.989,��쓌,3.5,��
2016/11/05,14:40,1.129,1.936,1.313,2.178,1.515,0.591,1.075,0.986,��,3.1,��
2016/11/05,14:50,1.129,1.937,1.312,2.180,1.516,0.590,1.076,0.986,��,2.6,��
2016/11/05,15:00,1.131,1.933,1.311,2.176,1.517,0.590,1.076,0.987,��,3.0,��
2016/11/05,15:10,1.130,1.930,1.314,2.176,1.515,0.590,1.073,0.986,��,1.7,��
2016/11/05,15:20,1.131,1.938,1.314,2.177,1.519,0.589,1.076,0.989,��쓌,2.1,��
2016/11/05,15:30,1.132,1.941,1.311,2.179,1.518,0.590,1.074,0.987,��쓌,1.4,��
2016/11/05,15:40,1.131,1.936,1.310,2.180,1.517,0.590,1.074,0.989,��쓌,0.9,��
2016/11/05,15:50,1.130,1.933,1.311,2.178,1.517,0.592,1.073,0.989,��,0.7,��
2016/11/05,16:00,1.133,1.938,1.313,2.176,1.518,0.592,1.076,0.989,��,1.7,��
2016/11/05,16:10,1.132,1.939,1.312,2.179,1.516,0.592,1.078,0.989,��,4.9,��
2016/11/05,16:20,1.131,1.937,1.311,2.175,1.516,0.592,1.078,0.989,���k��,4.7,��
2016/11/05,16:30,1.131,1.941,1.309,2.178,1.517,0.592,1.078,0.990,��,3.3,��
2016/11/05,16:40,1.131,1.939,1.312,2.178,1.515,0.592,1.077,0.989,���쐼,3.3,��
2016/11/05,16:50,1.129,1.941,1.314,2.175,1.517,0.594,1.076,0.989,���쐼,2.9,��
2016/11/05,17:00,1.131,1.941,1.310,2.175,1.517,0.592,1.076,0.989,���쐼,4.1,��
2016/11/05,17:10,1.131,1.939,1.313,2.175,1.518,0.590,1.076,0.989,�쐼,5.2,��
2016/11/05,17:20,1.129,1.939,1.313,2.178,1.519,0.591,1.076,0.988,���쐼,6.0,��
2016/11/05,17:30,1.131,1.939,1.313,2.174,1.518,0.591,1.076,0.989,���쐼,5.8,��
2016/11/05,17:40,1.130,1.940,1.310,2.177,1.514,0.592,1.078,0.987,���쐼,4.9,��
2016/11/05,17:50,1.133,1.941,1.311,2.175,1.518,0.590,1.077,0.988,���쐼,4.4,��
2016/11/05,18:00,1.130,1.937,1.312,2.175,1.513,0.592,1.074,0.988,���쐼,3.8,��
2016/11/05,18:10,1.129,1.937,1.310,2.178,1.519,0.591,1.075,0.988,���쐼,3.4,��
2016/11/05,18:20,1.130,1.938,1.311,2.173,1.518,0.590,1.076,0.988,�쐼,3.0,��
2016/11/05,18:30,1.129,1.938,1.312,2.172,1.516,0.590,1.076,0.988,�쐼,3.1,��
2016/11/05,18:40,1.130,1.939,1.311,2.175,1.512,0.589,1.075,0.987,�쐼,3.1,��
2016/11/05,18:50,1.129,1.938,1.312,2.178,1.517,0.590,1.073,0.988,�쐼,2.7,��
2016/11/05,19:00,1.130,1.939,1.312,2.177,1.517,0.588,1.075,0.987,�쐼,2.2,��
2016/11/05,19:10,1.127,1.940,1.311,2.174,1.520,0.589,1.077,0.988,���쐼,2.3,��
2016/11/05,19:20,1.127,1.935,1.310,2.173,1.517,0.588,1.073,0.988,���쐼,1.5,��
2016/11/05,19:30,1.127,1.937,1.308,2.174,1.517,0.588,1.075,0.987,���쐼,2.5,��
2016/11/05,19:40,1.128,1.938,1.310,2.175,1.515,0.589,1.074,0.989,��,2.4,��
2016/11/05,19:50,1.127,1.937,1.312,2.172,1.513,0.590,1.075,0.987,��,2.8,��
2016/11/05,20:00,1.130,1.941,1.311,2.174,1.513,0.589,1.074,0.986,���k��,1.5,��
2016/11/05,20:10,1.127,1.936,1.310,2.174,1.515,0.589,1.075,0.987,��,1.6,��
2016/11/05,20:20,1.126,1.938,1.311,2.172,1.516,0.588,1.075,0.988,�k,0.6,��
2016/11/05,20:30,1.126,1.938,1.309,2.175,1.518,0.590,1.075,0.989,�k��,1.1,��
2016/11/05,20:40,1.127,1.938,1.312,2.175,1.514,0.590,1.076,0.988,�k,1.7,��
2016/11/05,20:50,1.131,1.939,1.308,2.171,1.517,0.589,1.074,0.990,�k,0.9,��
2016/11/05,21:00,1.127,1.938,1.309,2.175,1.516,0.589,1.075,0.987,�k��,0.8,��
2016/11/05,21:10,1.129,1.932,1.309,2.171,1.513,0.589,1.077,0.987,�k��,2.3,��
2016/11/05,21:20,1.126,1.937,1.309,2.172,1.513,0.588,1.076,0.988,�k�k��,1.6,��
2016/11/05,21:30,1.128,1.936,1.310,2.173,1.515,0.588,1.074,0.987,���k��,2.4,��
2016/11/05,21:40,1.126,1.935,1.313,2.175,1.513,0.587,1.072,0.987,���k��,5.5,��
2016/11/05,21:50,1.129,1.939,1.312,2.175,1.516,0.588,1.075,0.987,���k��,6.3,��
2016/11/05,22:00,1.127,1.937,1.311,2.176,1.513,0.589,1.075,0.987,���k��,6.6,��
2016/11/05,22:10,1.126,1.938,1.311,2.176,1.515,0.587,1.075,0.988,�k�k��,2.5,��
2016/11/05,22:20,1.130,1.938,1.313,2.173,1.515,0.590,1.075,0.987,�k��,2.4,��
2016/11/05,22:30,1.128,1.939,1.312,2.175,1.515,0.589,1.077,0.989,�k��,2.0,��
2016/11/05,22:40,1.131,1.938,1.312,2.178,1.514,0.589,1.078,0.990,��,2.3,��
2016/11/05,22:50,1.129,1.935,1.311,2.175,1.516,0.589,1.076,0.986,���쓌,1.6,��
2016/11/05,23:00,1.129,1.936,1.312,2.174,1.515,0.589,1.075,0.987,���쓌,1.4,��
2016/11/05,23:10,1.129,1.937,1.313,2.176,1.515,0.588,1.078,0.987,��쓌,2.0,��
2016/11/05,23:20,1.128,1.939,1.308,2.173,1.518,0.589,1.077,0.988,��,0.9,��
2016/11/05,23:30,1.130,1.936,1.310,2.176,1.512,0.589,1.077,0.986,��,1.4,��
2016/11/05,23:40,1.129,1.934,1.312,2.174,1.517,0.588,1.075,0.988,�쓌,2.1,��
2016/11/05,23:50,1.131,1.938,1.312,2.176,1.516,0.589,1.077,0.990,��쐼,0.5,��
